Resoconti di bolidi

Dec 29, 2019 - Jan 29, 2020
Trovati resoconti: 2211  negli ultimi 30 giorni  Pagina 1 / 45
IDDate e tempo T.U. (Tempo Universale)Data e tempo localeRegioneCittàStatoDur.MagnitudineSuono differitoSuono contemporaneoFrag.OsservatoreLivello di esperienza
Evento 506-2020
506a2020-01-27 05:35 UT2020-01-27 06:35 CETDZ Hassi GaraGhardaia Province≈7,5s 0---ludovicH 1
Evento 505-2020
505a2020-01-27 01:21 UT2020-01-26 22:21 -3 fusi orari BR Rio de Janeiro≈1,5s -12???WellingtonR 3
Evento 504-2020
504a2020-01-27 04:17 UT2020-01-26 21:17 MSTUS LouisvilleCO≈3,5s -13---MikeM 3
Evento 503-2020
503a2020-01-27 00:20 UT2020-01-26 16:20 PSTUS Palo AltoCA≈1,5s -6---JulianaL 3
503b2020-01-27 00:34 UT2020-01-26 16:34 PSTUS San RafaelCA<1s -9-HeatherG 1
503c2020-01-27 00:37 UT2020-01-26 16:37 PSTUS Santa CruzCA≈3,5s -22--?JenniferZ 1
503d2020-01-27 00:32 UT2020-01-26 16:32 PSTUS Portola ValleyCA≈1,5s -9--AlexI 4
503e2020-01-27 00:45 UT2020-01-26 16:45 PSTUS Morgan HillCA≈3,5s -20---BarbaraS 1
503f2020-01-27 00:36 UT2020-01-26 16:36 PSTUS Santa RosaCA≈1,5s -18-?-TeresaJ 1
503g2020-01-27 00:33 UT2020-01-26 16:33 PSTUS TomalesCA≈3,5s -9-?LisaM 3
503h2020-01-27 00:35 UT2020-01-26 16:35 PSTUS HealdsburgCA≈3,5s -18---ScottH 2
503i2020-01-27 00:34 UT2020-01-26 16:34 PSTUS Santa RosaCA≈3,5s -12---NickW 4
503j2020-01-27 00:30 UT2020-01-26 16:30 PSTUS SaratogaCA≈1,5s -14??-AlyssaO 2
503k2020-01-27 00:32 UT2020-01-26 16:32 PSTUS Redwood CityCA≈1,5s -18--ScottW 2
503l2020-01-27 00:35 UT2020-01-26 16:35 PSTUS San JoseCA≈1,5s -18?--ScottM 2
503m2020-01-27 00:35 UT2020-01-26 16:35 PSTUS Glen EllenCA≈1,5s -6--?KatherineH 3
503n2020-01-27 00:26 UT2020-01-26 16:26 PSTUS FairfaxCA≈3,5s -20-?B.S 2
Evento 502-2020
502a2020-01-26 23:36 UT2020-01-26 18:36 ESTUS MonmouthME≈3,5s -7---MeganH 2
Evento 501-2020
501a2020-01-26 22:52 UT2020-01-26 23:52 CETDE SalzkottenNordrhein-Westfalen≈3,5s 0---SabrinaP 1
Evento 500-2020
500a2020-01-26 21:53 UT2020-01-26 22:53 CETFR Saint-Quentin-de-BaronNouvelle-Aquitaine≈3,5s -13---FabienL 1
Evento 499-2020
499a2020-01-26 20:27 UT2020-01-26 20:27 GMTGB England<1s -5---TessaC 2
Evento 498-2020
498a2020-01-26 17:49 UT2020-01-26 18:49 CETFR OrbessanOccitanie≈3,5s -6???BrunoE 2
498b2020-01-26 17:50 UT2020-01-26 18:50 CETFR ToulouseOccitanie≈3,5s -8?-RomainP 3
498c2020-01-26 17:51 UT2020-01-26 18:51 CETFR Magny-CoursBourgogne-Franche-Comté≈7,5s -4??-GuillemetteB 1
498d2020-01-26 17:51 UT2020-01-26 18:51 CETFR FloiracNouvelle-Aquitaine≈1,5s -8---VincentP 4
498e2020-01-26 18:00 UT2020-01-26 19:00 CETFR PierrelatteAuvergne-Rhône-Alpes≈3,5s -21??philippeV 3
498f2020-01-26 18:00 UT2020-01-26 19:00 CETFR PontacqNouvelle-Aquitaine≈3,5s -5--AmandineB 3
Evento 497-2020
497a2020-01-26 04:10 UT2020-01-25 22:10 CSTUS CarthageMS≈3,5s -5---EdwardM 1
Evento 496-2020
496a2020-01-26 02:45 UT2020-01-25 21:45 ESTUS Vero BeachFL≈3,5s -20---MC 3
Evento 495-2020
495a2020-01-26 17:31 UT2020-01-27 04:31 AEDTAU Campbells CreekVictoria<1s -10---OttoP 1
Evento 494-2020
494a2020-01-26 08:56 UT2020-01-26 03:56 ESTUS OrlandIN<1s -5--LindaH 1
Evento 493-2020
493a2020-01-26 07:41 UT2020-01-26 02:41 ESTUS LakelandFL≈3,5s -5---JosephG 4
493b2020-01-26 07:42 UT2020-01-26 02:42 ESTUS St. AugustineFL<1s -7---ArthurD 1
493c2020-01-26 07:42 UT2020-01-26 02:42 ESTUS St. Pete BeachFL≈1,5s -17---DamianP 2
Evento 492-2020
492a2020-01-26 06:07 UT2020-01-26 06:07 GMTGB England≈1,5s -10---SteveG 2
Evento 491-2020
491a2020-01-26 05:15 UT2020-01-26 00:15 ESTUS JupiterFL≈1,5s -14--?NicoleG 1
491b2020-01-26 05:28 UT2020-01-26 00:28 ESTUS Coral SpringsFL≈1,5s -14--TonyT 3
491c2020-01-26 05:29 UT2020-01-26 00:29 ESTUS OrlandoFL≈3,5s -5--DarrylG 1
491d2020-01-26 05:30 UT2020-01-26 00:30 ESTUS West Palm BeachFL≈3,5s -9---ChristenM 2
491e2020-01-26 05:30 UT2020-01-26 00:30 ESTUS Delray BeachFL≈3,5s -7---PaulV 3
491f2020-01-26 05:30 UT2020-01-26 00:30 ESTUS MelbourneFL≈1,5s -20-TrilbyS 3
491g2020-01-26 05:30 UT2020-01-26 00:30 ESTUS Bal HarbourFL<1s -5--KristenJ 1
491h2020-01-26 05:30 UT2020-01-26 00:30 ESTUS OrlandoFL≈1,5s -18---AustinR 4
491i2020-01-26 05:31 UT2020-01-26 00:31 ESTUS LakelandFL≈1,5s -8---JosephG 4
491j2020-01-26 05:31 UT2020-01-26 00:31 ESTUS ClearwaterFL≈1,5s -14--DavidP 3
491k2020-01-26 05:31 UT2020-01-26 00:31 ESTUS EnglewoodFL≈3,5s -12--?RhondaT 1
491l2020-01-26 05:31 UT2020-01-26 00:31 ESTUS HollywoodFL≈3,5s -13-TevinS 1
491m2020-01-26 05:31 UT2020-01-26 00:31 ESTUS Vero BeachFL≈3,5s -18---BillP 3
491n2020-01-26 05:32 UT2020-01-26 00:32 ESTUS FL≈45s 0--?Vincent C 1
491o2020-01-26 05:33 UT2020-01-26 00:33 ESTUS Winter ParkFL≈1,5s -13??-RyanB 5